WZZ8 EPWA-LZIB

Flight info

Callsign WZZ8
Flight time 0h 51m
Altitude 34000
Route EVINA7G EVINA DCT LIGDI DCT SKARY DCT NIDOK M985 NIT NIT2U
Aircraft A21N/M-SDE1E2E3FGIJ1J4RWXY/LB1

Departure

Time 2026-05-05 19:50
Airport Warsaw Chopin Airport (EPWA)

Arrival

Time 2026-05-05 20:41
Airport M. R. Štefánik Airport (LZIB)
Time Latitude Longitude Altitude Speed Heading
2026-05-05 19:14 52.17582 20.96358 333 ft 0 kts 242°
2026-05-05 19:44 52.17581 20.96357 333 ft 0 kts 242°
2026-05-05 19:44 52.17572 20.96329 333 ft 4 kts 242°
2026-05-05 19:44 52.17550 20.96280 334 ft 5 kts 206°
2026-05-05 19:44 52.17501 20.96302 334 ft 10 kts 153°
2026-05-05 19:45 52.17430 20.96363 334 ft 13 kts 152°
2026-05-05 19:45 52.17351 20.96434 334 ft 13 kts 151°
2026-05-05 19:45 52.17272 20.96503 333 ft 14 kts 152°
2026-05-05 19:45 52.17192 20.96573 333 ft 14 kts 152°
2026-05-05 19:46 52.17113 20.96641 332 ft 14 kts 152°
2026-05-05 19:46 52.17005 20.96734 330 ft 16 kts 152°
2026-05-05 19:46 52.16907 20.96820 330 ft 15 kts 151°
2026-05-05 19:46 52.16813 20.96903 332 ft 14 kts 152°
2026-05-05 19:47 52.16727 20.96977 333 ft 13 kts 153°
2026-05-05 19:47 52.16659 20.97069 335 ft 12 kts 117°
2026-05-05 19:47 52.16627 20.97183 337 ft 10 kts 115°
2026-05-05 19:47 52.16594 20.97300 337 ft 12 kts 114°
2026-05-05 19:48 52.16550 20.97455 337 ft 15 kts 114°
2026-05-05 19:48 52.16503 20.97617 337 ft 15 kts 114°
2026-05-05 19:48 52.16462 20.97768 336 ft 8 kts 115°
2026-05-05 19:48 52.16408 20.97800 335 ft 10 kts 206°
2026-05-05 19:49 52.16337 20.97746 334 ft 12 kts 207°
2026-05-05 19:49 52.16304 20.97712 334 ft 6 kts 240°
2026-05-05 19:49 52.16318 20.97627 334 ft 3 kts 293°
2026-05-05 19:49 52.16349 20.97514 336 ft 37 kts 295°
2026-05-05 19:50 52.16571 20.96726 332 ft 113 kts 294°
2026-05-05 19:50 52.16988 20.95245 379 ft 166 kts 294°
2026-05-05 19:50 52.17481 20.93523 880 ft 172 kts 292°
2026-05-05 19:50 52.17984 20.91750 1554 ft 174 kts 290°
2026-05-05 19:51 52.18312 20.89870 2045 ft 175 kts 267°
2026-05-05 19:51 52.18113 20.87864 2386 ft 187 kts 254°
2026-05-05 19:51 52.17786 20.85703 2709 ft 205 kts 254°
2026-05-05 19:51 52.17430 20.83335 3020 ft 227 kts 255°
2026-05-05 19:52 52.17040 20.80788 3483 ft 241 kts 250°
2026-05-05 19:52 52.16101 20.78498 3974 ft 252 kts 216°
2026-05-05 19:52 52.14477 20.77404 4742 ft 255 kts 197°
2026-05-05 19:52 52.12780 20.76584 5522 ft 256 kts 207°
2026-05-05 19:53 52.11354 20.74917 6286 ft 256 kts 224°
2026-05-05 19:53 52.10093 20.72880 7065 ft 258 kts 226°
2026-05-05 19:53 52.08864 20.70779 7768 ft 261 kts 227°
2026-05-05 19:53 52.07624 20.68615 8543 ft 264 kts 227°
2026-05-05 19:54 52.06385 20.66430 9240 ft 266 kts 227°
2026-05-05 19:54 52.05133 20.64200 9912 ft 269 kts 227°
2026-05-05 19:54 52.03857 20.61913 10411 ft 280 kts 227°
2026-05-05 19:54 52.02532 20.59537 10770 ft 293 kts 227°
2026-05-05 19:55 52.01156 20.57069 11352 ft 297 kts 227°
2026-05-05 19:55 51.99760 20.54564 12044 ft 299 kts 227°
2026-05-05 19:55 51.98371 20.52057 12692 ft 301 kts 227°
2026-05-05 19:55 51.96991 20.49552 13303 ft 303 kts 227°
2026-05-05 19:56 51.95581 20.46993 13918 ft 305 kts 227°
2026-05-05 19:56 51.94164 20.44437 14474 ft 308 kts 227°
2026-05-05 19:56 51.92714 20.41837 14996 ft 313 kts 227°
2026-05-05 19:56 51.91204 20.39329 15490 ft 316 kts 218°
2026-05-05 19:57 51.89216 20.37724 15968 ft 320 kts 201°
2026-05-05 19:57 51.87794 20.36931 16334 ft 322 kts 200°
2026-05-05 19:57 51.84953 20.35353 16955 ft 329 kts 200°
2026-05-05 19:57 51.82757 20.34098 17438 ft 332 kts 200°
2026-05-05 19:58 51.80566 20.32823 17896 ft 337 kts 200°
2026-05-05 19:58 51.78354 20.31518 18338 ft 341 kts 201°
2026-05-05 19:58 51.76120 20.30190 18815 ft 344 kts 201°
2026-05-05 19:58 51.73895 20.28862 19303 ft 346 kts 201°
2026-05-05 19:59 51.71618 20.27499 19792 ft 348 kts 201°
2026-05-05 19:59 51.69364 20.26148 20258 ft 351 kts 201°
2026-05-05 19:59 51.67050 20.24760 20699 ft 354 kts 201°
2026-05-05 19:59 51.64729 20.23368 21128 ft 357 kts 201°
2026-05-05 20:00 51.62430 20.21991 21557 ft 359 kts 201°
2026-05-05 20:00 51.60058 20.20571 21994 ft 361 kts 201°
2026-05-05 20:00 51.57684 20.19150 22397 ft 364 kts 201°
2026-05-05 20:00 51.55307 20.17729 22773 ft 367 kts 201°
2026-05-05 20:01 51.52914 20.16301 23183 ft 369 kts 201°
2026-05-05 20:01 51.50484 20.14852 23576 ft 372 kts 201°
2026-05-05 20:01 51.48081 20.13422 23941 ft 374 kts 201°
2026-05-05 20:01 51.45629 20.11966 24320 ft 377 kts 201°
2026-05-05 20:02 51.43143 20.10488 24696 ft 379 kts 201°
2026-05-05 20:02 51.40681 20.09027 25055 ft 381 kts 201°
2026-05-05 20:02 51.38176 20.07542 25407 ft 384 kts 201°
2026-05-05 20:02 51.35676 20.06060 25742 ft 386 kts 201°
2026-05-05 20:03 51.33167 20.04575 26069 ft 389 kts 201°
2026-05-05 20:03 51.30619 20.03071 26400 ft 391 kts 201°
2026-05-05 20:03 51.28059 20.01560 26729 ft 393 kts 201°
2026-05-05 20:03 51.25489 20.00045 27039 ft 396 kts 201°
2026-05-05 20:04 51.22899 19.98519 27335 ft 398 kts 201°
2026-05-05 20:04 51.20314 19.97000 27631 ft 400 kts 201°
2026-05-05 20:04 51.17696 19.95462 27923 ft 403 kts 201°
2026-05-05 20:04 51.15076 19.93925 28219 ft 405 kts 201°
2026-05-05 20:05 51.12442 19.92382 28497 ft 407 kts 201°
2026-05-05 20:05 51.09742 19.90801 28782 ft 410 kts 201°
2026-05-05 20:05 51.07081 19.89247 29054 ft 412 kts 201°
2026-05-05 20:05 51.04395 19.87681 29333 ft 414 kts 201°
2026-05-05 20:06 51.01671 19.86092 29606 ft 416 kts 201°
2026-05-05 20:06 50.98969 19.84519 29865 ft 419 kts 201°
2026-05-05 20:06 50.96236 19.82930 30136 ft 420 kts 201°
2026-05-05 20:06 50.93479 19.81329 30411 ft 422 kts 201°
2026-05-05 20:07 50.90736 19.79737 30682 ft 424 kts 201°
2026-05-05 20:07 50.87943 19.78121 30942 ft 425 kts 201°
2026-05-05 20:07 50.85159 19.76509 31201 ft 427 kts 201°
2026-05-05 20:07 50.82375 19.74900 31434 ft 429 kts 201°
2026-05-05 20:08 50.79578 19.73286 31665 ft 431 kts 201°
2026-05-05 20:08 50.76761 19.71661 31895 ft 433 kts 201°
2026-05-05 20:08 50.73927 19.70030 32122 ft 434 kts 201°
2026-05-05 20:08 50.71102 19.68407 32347 ft 436 kts 201°
2026-05-05 20:09 50.68228 19.66758 32563 ft 438 kts 201°
2026-05-05 20:09 50.65376 19.65122 32768 ft 439 kts 201°
2026-05-05 20:09 50.62491 19.63471 32977 ft 441 kts 202°
2026-05-05 20:09 50.59640 19.61841 33186 ft 442 kts 201°
2026-05-05 20:10 50.56744 19.60189 33397 ft 443 kts 202°
2026-05-05 20:10 50.53832 19.58528 33604 ft 445 kts 202°
2026-05-05 20:10 50.50906 19.56861 33783 ft 446 kts 202°
2026-05-05 20:11 50.45068 19.53541 33809 ft 446 kts 202°
2026-05-05 20:11 50.39283 19.50259 33811 ft 446 kts 202°
2026-05-05 20:12 50.33464 19.46965 33808 ft 446 kts 202°
2026-05-05 20:12 50.27637 19.43679 33810 ft 446 kts 202°
2026-05-05 20:13 50.21812 19.40401 33811 ft 446 kts 202°
2026-05-05 20:13 50.15938 19.37105 33807 ft 446 kts 202°
2026-05-05 20:14 50.10086 19.33830 33791 ft 447 kts 201°
2026-05-05 20:14 50.04219 19.30554 33789 ft 446 kts 201°
2026-05-05 20:15 49.98466 19.27349 33780 ft 445 kts 201°
2026-05-05 20:15 49.92636 19.24111 33801 ft 445 kts 201°
2026-05-05 20:16 49.86791 19.20872 33818 ft 445 kts 201°
2026-05-05 20:16 49.80946 19.17640 33834 ft 446 kts 201°
2026-05-05 20:17 49.75097 19.14417 33849 ft 446 kts 201°
2026-05-05 20:17 49.69279 19.11218 33858 ft 445 kts 201°
2026-05-05 20:18 49.63427 19.08007 33862 ft 445 kts 201°
2026-05-05 20:18 49.57589 19.04812 33862 ft 444 kts 201°
2026-05-05 20:19 49.51924 19.01147 33830 ft 439 kts 212°
2026-05-05 20:19 49.49408 18.98460 33435 ft 435 kts 220°
2026-05-05 20:19 49.47112 18.95426 32483 ft 441 kts 223°
2026-05-05 20:19 49.44811 18.92267 31519 ft 446 kts 223°
2026-05-05 20:20 49.42506 18.89096 30832 ft 444 kts 223°
2026-05-05 20:20 49.40231 18.85981 30245 ft 440 kts 223°
2026-05-05 20:20 49.37946 18.82871 29668 ft 436 kts 223°
2026-05-05 20:20 49.35682 18.79803 29110 ft 432 kts 223°
2026-05-05 20:21 49.33433 18.76763 28560 ft 428 kts 222°
2026-05-05 20:21 49.31227 18.73790 28016 ft 424 kts 222°
2026-05-05 20:21 49.29036 18.70844 27378 ft 417 kts 222°
2026-05-05 20:21 49.26876 18.67944 26589 ft 412 kts 222°
2026-05-05 20:22 49.24742 18.65082 25797 ft 407 kts 222°
2026-05-05 20:22 49.22628 18.62252 25025 ft 402 kts 222°
2026-05-05 20:22 49.20512 18.59422 24241 ft 397 kts 222°
2026-05-05 20:22 49.18448 18.56664 23467 ft 392 kts 221°
2026-05-05 20:23 49.16414 18.53950 22714 ft 387 kts 222°
2026-05-05 20:23 49.14416 18.51289 21966 ft 383 kts 221°
2026-05-05 20:23 49.12405 18.48612 21286 ft 382 kts 221°
2026-05-05 20:23 49.10396 18.45940 20762 ft 379 kts 221°
2026-05-05 20:24 49.08433 18.43334 20294 ft 375 kts 221°
2026-05-05 20:24 49.06469 18.40728 19840 ft 371 kts 221°
2026-05-05 20:24 49.04541 18.38174 19418 ft 366 kts 221°
2026-05-05 20:24 49.02623 18.35634 18961 ft 363 kts 221°
2026-05-05 20:25 49.00718 18.33118 18518 ft 359 kts 221°
2026-05-05 20:25 48.98912 18.30732 18094 ft 356 kts 221°
2026-05-05 20:25 48.97026 18.28242 17644 ft 353 kts 221°
2026-05-05 20:25 48.95207 18.25843 17235 ft 350 kts 221°
2026-05-05 20:26 48.93378 18.23433 16838 ft 346 kts 221°
2026-05-05 20:26 48.91552 18.21029 16416 ft 343 kts 220°
2026-05-05 20:26 48.89757 18.18669 16002 ft 340 kts 220°
2026-05-05 20:26 48.87989 18.16347 15601 ft 337 kts 220°
2026-05-05 20:27 48.86203 18.14002 15203 ft 335 kts 220°
2026-05-05 20:27 48.84441 18.11694 14814 ft 331 kts 220°
2026-05-05 20:27 48.82693 18.09406 14422 ft 329 kts 220°
2026-05-05 20:27 48.80986 18.07174 14059 ft 325 kts 220°
2026-05-05 20:28 48.79289 18.04956 13727 ft 321 kts 220°
2026-05-05 20:28 48.77608 18.02761 13373 ft 318 kts 220°
2026-05-05 20:28 48.75938 18.00581 12994 ft 315 kts 220°
2026-05-05 20:28 48.74274 17.98411 12605 ft 313 kts 220°
2026-05-05 20:29 48.72639 17.96281 12213 ft 311 kts 219°
2026-05-05 20:29 48.71013 17.94166 11810 ft 308 kts 219°
2026-05-05 20:29 48.69395 17.92064 11418 ft 306 kts 219°
2026-05-05 20:29 48.67772 17.89956 11025 ft 304 kts 219°
2026-05-05 20:30 48.66195 17.87910 10639 ft 301 kts 219°
2026-05-05 20:30 48.64595 17.85836 10257 ft 299 kts 219°
2026-05-05 20:30 48.63037 17.83817 9955 ft 293 kts 219°
2026-05-05 20:30 48.61528 17.81864 9857 ft 279 kts 219°
2026-05-05 20:31 48.60086 17.79997 9705 ft 269 kts 219°
2026-05-05 20:31 48.58672 17.78170 9325 ft 268 kts 219°
2026-05-05 20:31 48.57256 17.76339 8968 ft 266 kts 218°
2026-05-05 20:31 48.55857 17.74532 8630 ft 263 kts 218°
2026-05-05 20:32 48.54476 17.72753 8297 ft 260 kts 218°
2026-05-05 20:32 48.53125 17.71011 7973 ft 257 kts 218°
2026-05-05 20:32 48.51770 17.69266 7646 ft 254 kts 217°
2026-05-05 20:32 48.50431 17.67544 7326 ft 252 kts 217°
2026-05-05 20:33 48.49104 17.65840 7001 ft 250 kts 217°
2026-05-05 20:33 48.47786 17.64148 6661 ft 248 kts 217°
2026-05-05 20:33 48.46488 17.62481 6348 ft 245 kts 217°
2026-05-05 20:33 48.45203 17.60834 6025 ft 243 kts 217°
2026-05-05 20:34 48.43918 17.59186 5699 ft 240 kts 217°
2026-05-05 20:34 48.42673 17.57590 5376 ft 239 kts 217°
2026-05-05 20:34 48.41453 17.56032 5068 ft 237 kts 217°
2026-05-05 20:34 48.40181 17.54409 4830 ft 230 kts 217°
2026-05-05 20:35 48.38999 17.52892 4768 ft 217 kts 217°
2026-05-05 20:35 48.37873 17.51449 4691 ft 213 kts 218°
2026-05-05 20:35 48.36787 17.49877 4507 ft 216 kts 222°
2026-05-05 20:35 48.35750 17.48279 4205 ft 213 kts 221°
2026-05-05 20:36 48.34713 17.46709 3937 ft 210 kts 220°
2026-05-05 20:36 48.33686 17.45195 3765 ft 202 kts 220°
2026-05-05 20:36 48.32700 17.43763 3694 ft 193 kts 219°
2026-05-05 20:36 48.31735 17.42381 3627 ft 193 kts 219°
2026-05-05 20:37 48.30757 17.40987 3522 ft 192 kts 219°
2026-05-05 20:37 48.30118 17.40076 3434 ft 191 kts 219°
2026-05-05 20:37 48.28830 17.38236 3119 ft 186 kts 219°
2026-05-05 20:37 48.27922 17.36934 2869 ft 178 kts 219°
2026-05-05 20:38 48.27072 17.35715 2785 ft 160 kts 219°
2026-05-05 20:38 48.26301 17.34607 2639 ft 147 kts 218°
2026-05-05 20:38 48.25572 17.33563 2429 ft 141 kts 217°
2026-05-05 20:38 48.24845 17.32528 2261 ft 147 kts 218°
2026-05-05 20:39 48.24103 17.31467 2072 ft 149 kts 218°
2026-05-05 20:39 48.23350 17.30384 1890 ft 147 kts 218°
2026-05-05 20:39 48.22617 17.29329 1706 ft 147 kts 218°
2026-05-05 20:39 48.21892 17.28264 1512 ft 146 kts 218°
2026-05-05 20:40 48.21155 17.27209 1308 ft 145 kts 217°
2026-05-05 20:40 48.20415 17.26194 1103 ft 145 kts 218°
2026-05-05 20:40 48.19687 17.25148 894 ft 144 kts 218°
2026-05-05 20:40 48.18962 17.24092 752 ft 144 kts 220°
2026-05-05 20:41 48.18244 17.23053 547 ft 143 kts 219°
2026-05-05 20:41 48.17534 17.22040 428 ft 132 kts 224°
2026-05-05 20:41 48.16978 17.21236 428 ft 88 kts 224°
2026-05-05 20:41 48.16658 17.20774 429 ft 41 kts 223°
2026-05-05 20:42 48.16567 17.20615 431 ft 12 kts 275°
2026-05-05 20:42 48.16621 17.20507 431 ft 13 kts 314°
2026-05-05 20:42 48.16662 17.20443 431 ft 4 kts 313°
2026-05-05 20:42 48.16663 17.20441 431 ft 0 kts 314°
2026-05-05 20:43 48.16664 17.20441 431 ft 0 kts 313°
2026-05-05 20:43 48.16668 17.20434 431 ft 1 kts 313°
2026-05-05 20:44 48.16691 17.20398 431 ft 8 kts 313°
2026-05-05 20:44 48.16747 17.20315 432 ft 12 kts 314°
2026-05-05 20:44 48.16803 17.20228 433 ft 11 kts 314°
2026-05-05 20:44 48.16850 17.20152 435 ft 6 kts 313°
2026-05-05 20:45 48.16906 17.20123 435 ft 5 kts 309°
2026-05-05 20:45 48.16918 17.20103 436 ft 0 kts 314°
2026-05-05 20:45 48.16919 17.20103 436 ft 0 kts 314°